Location: Haskovo
(41.9227°N, 25.5707°E)
Time: 21:48:30
(UTC+03:00)

ISS - Pass Details

Date: 22 May 2025
Orbit: 415 x 417 km, 51.6° (Epoch: 16 June)

Event Time Altitude Azimuth Distance (km) Brightness Sun altitude
Rises 22:30:42 0° 307° (NW) 2,360 1.6 -17.0°
Reaches altitude 10° 22:32:51 10° 313° (NW) 1,494 0.3 -17.2°
Maximum altitude 22:36:07 50° 30° (NNE) 537 -3.2 -17.6°
Enters shadow 22:37:04 36° 80° (E) 671 -3.0 -17.7°
